DELTA 1 DEB, 28266

Orbit data source: Space-Track

DELTA 1 DEB, 28266 is space debris in LEO originally from a launch on Thu, 04 Jul 1968 UTC launched from the Air Force Western Test Range (AFWTR). Debris objects in space refer to the collection of defunct objects orbiting the Earth. Examples of debris include non-operational satellites, rocket bodies, and fragments generated from explosions, collisions, or faulty payload assembly.

Loading next visibility...
Identifier
28266, 1968-055L
Orbit
LEO
Country
Flag of USUS
Related business
Manufacturer
Unknown
Mission
Spacecraft
Bus & Motor
Unknown
Mass
Unknown
Launch date (UTC)
1968-07-04 (58 years ago)
Launch vehicle
Unknown
Launch site
Air Force Western Test Range (AFWTR)
Object type
Payload
Rocket body
Debris
Shape & HBR
Unknown shape, 0.1 m
Radar Cross Section
Small (<0.1 m²)

Expand to show TLE details & history
Last TLE update: 4 days ago

TLE from 4 days ago
0 DELTA 1 DEB
1 28266U 68055L   26122.40941863 -.00000493  00000-0 -10826-2 0  9993
2 28266 120.6746 252.9371 1687473 118.4727 259.6355 10.85050810515674
Epoch: 2026-05-02T09:49Z
TLE epoch observation values (Epoch: 2026-05-02T09:49:33.769Z)
Latitude
-0.00001°
Longitude
-114.78133°
Altitude
2,726.695 km
Speed
6.429 km/s
True Right ascension
16h 51m 44s
True Declination
0° 00' 00"
Sunlit
Object was in full shadow at epoch
Visualization orbit readout
Latitude
Unknown
Longitude
Unknown
Altitude
Unknown
Speed
Unknown
Apparent Right ascension
Unknown
Apparent Declination
Unknown
Sunlit
N/A
Visualization observer readout
Local Sidereal Time
08:46:00
Azimuth
Unknown
Elevation
Unknown
Doppler factor
Unknown
Orbital elements
Apogee altitude
3,694.114 km
Perigee altitude
785.589 km
Semi-major axis
8,617.989 km
Eccentricity
0.16875
Inclination
120.6746°
RAAN
252.9371°
Arg. of periapsis
118.4727°
True anomaly
241.61051°
Mean anomaly
259.6355°
Eccentric anomaly
250.52041°
Mean motion
2.7129 °/min
Orbital period
132.7 mins
BSTAR
-0.0010826
Loading maneuver chart data...
Computing Atmospheric mass density...
Loading historical data...
Loading historical data...
Loading historical data...
Loading historical data...
Loading historical data...
Loading historical data...
Loading historical data...

Documentation

Showing up to 5 results
|